[[{"header":{"parameterUnit":"m.s-1","parameterCategory":1,"la1":30.2991,"la2":30.254,"lo1":-89.0895,"lo2":-89.0444,"dy":0.0017,"dx":0.0017,"nx":28,"ny":28,"refTime":"2024-04-09T09:00:00:Z","depth":0,"parameterNumber":2,"parameterNumberName":"U-component_of_WINDS"},"data":[0,0,0,0,0,0,0,0,0,0,0,0,0,0,0,0,0,0,0,0,0,0,0,0,0,0,0,0,0,0,0,0,0,0,0,0,0,0,0,0,0,0,0,0,0,0,0,0,0,0,0,0,0,0,0,0,0,0,-4.8207,-4.8207,0,-4.8269,-4.827,-4.8271,-4.8279,-4.8279,-4.8278,-4.8277,-4.8337,-4.8339,-4.8342,0,0,0,0,0,0,0,0,0,0,0,0,0,-4.8091,-4.8093,-4.8207,-4.8207,-4.8208,-4.8269,-4.827,-4.8271,-4.8279,-4.8279,-4.8278,-4.8277,-4.8337,-4.8339,-4.8342,0,0,0,0,0,0,0,0,0,0,0,0,0,-4.8146,-4.8094,-4.8206,-4.822,-4.8222,-4.8269,-4.827,-4.8271,-4.8279,-4.8279,-4.8278,-4.8277,-4.8336,-4.8339,-4.8342,-4.8379,0,0,-4.8352,-4.8353,0,0,0,0,0,0,0,0,-4.8143,-4.815,-4.8217,-4.8219,-4.8221,-4.8266,-4.8251,-4.8307,-4.828,-4.8257,-4.8277,-4.8276,-4.8314,-4.8319,-4.8332,-4.8382,-4.8384,-4.8352,-4.8354,-4.8355,-4.8356,0,0,0,0,0,0,0,-4.8139,-4.8147,-4.8231,-4.8218,-4.8221,-4.8222,-4.8228,-4.8262,-4.8289,-4.8259,-4.826,-4.8268,-4.8315,-4.8329,-4.8334,-4.8385,-4.8352,-4.8355,-4.8357,-4.8358,-4.8468,-4.8469,0,0,0,0,0,0,-4.8133,-4.8144,-4.8229,-4.8233,-4.8179,-4.8224,-4.8232,-4.8252,-4.8289,-4.8294,-4.8268,-4.8268,-4.8324,-4.833,-4.8336,-4.8381,-4.8355,-4.8358,-4.836,-4.8467,-4.8468,-4.8469,0,0,0,0,0,0,-4.8131,-4.8141,-4.8227,-4.8189,-4.82,-4.8227,-4.825,-4.8254,-4.8268,-4.8296,-4.8301,-4.8278,-4.8324,-4.8331,-4.8369,-4.8383,-4.836,-4.8363,-4.8466,-4.8467,-4.8469,-4.8472,0,0,0,0,0,0,-4.8127,-4.814,-4.8155,-4.8189,-4.8202,-4.8259,-4.8251,-4.8256,-4.8274,-4.8274,-4.8307,-4.8311,-4.8324,-4.8364,-4.8372,-4.8387,-4.8365,-4.8465,-4.8467,-4.8468,-4.8471,-4.8473,-4.8476,0,0,0,0,0,-4.8123,-4.8152,-4.8156,-4.8166,-4.8222,-4.826,-4.8267,-4.8282,-4.8275,-4.829,-4.8308,-4.831,-4.8381,-4.8367,-4.8376,-4.8393,-4.8464,-4.8466,-4.8468,-4.8469,-4.8473,-4.8476,0,0,0,0,0,0,-4.8117,-4.8157,-4.8161,-4.8202,-4.8228,-4.8261,-4.828,-4.8285,-4.8312,-4.8311,-4.8327,-4.8335,-4.8371,-4.8386,-4.837,-4.8431,-4.8422,-4.8426,-4.8419,-4.8423,-4.8425,-4.842,-4.8368,0,0,0,0,0,-4.8121,-4.815,-4.8183,-4.8216,-4.8229,-4.8253,-4.827,-4.828,-4.8306,-4.8317,-4.8337,-4.8362,-4.839,-4.8407,-4.8435,-4.8474,-4.848,-4.849,-4.8492,-4.8494,-4.8497,-4.8518,-4.8522,-4.8477,-4.8477,-4.8477,0,0,-4.8128,-4.8154,-4.8171,-4.8216,-4.8237,-4.8265,-4.8262,-4.8292,-4.8313,-4.8321,-4.8357,-4.8373,-4.8402,-4.844,-4.8458,-4.8454,-4.8511,-4.8497,-4.8498,-4.85,-4.8521,-4.8525,-4.8529,-4.8478,-4.8478,-4.8478,0,0,-4.8156,-4.8179,-4.8209,-4.8231,-4.8263,-4.8279,-4.8286,-4.8319,-4.8331,-4.8368,-4.8374,-4.8399,-4.8447,-4.8467,-4.8483,-4.852,-4.8523,-4.8529,-4.8541,-4.8562,-4.8565,-4.8569,-4.858,-4.8585,-4.8532,-4.8532,-4.8532,0,-4.816,-4.8205,-4.8223,-4.8254,-4.8273,-4.8284,-4.8313,-4.8333,-4.8372,-4.8384,-4.838,-4.844,-4.846,-4.8503,-4.8512,-4.8526,-4.8533,-4.8524,-4.8564,-4.8567,-4.857,-4.8582,-4.8586,-4.8532,-4.8532,-4.8532,-4.8532,0,-4.8208,-4.8239,-4.8259,-4.8298,-4.832,-4.835,-4.8372,-4.8391,-4.84,-4.8416,-4.8453,-4.8478,-4.851,-4.8522,-4.8529,-4.8565,-4.8562,-4.8561,-4.8551,-4.8575,-4.8586,-4.859,-4.8533,-4.8533,-4.8533,-4.8533,0,0,-4.8232,-4.8282,-4.8289,-4.8307,-4.8344,-4.8367,-4.8398,-4.8431,-4.8447,-4.8474,-4.8499,-4.854,-4.8539,-4.8558,-4.8568,-4.8586,-4.8613,-4.8583,-4.8584,-4.8586,-4.8653,-4.8652,-4.8657,-4.8616,-4.8617,-4.8617,-4.865,0,-4.8262,-4.8318,-4.8336,-4.8382,-4.841,-4.8421,-4.8447,-4.8472,-4.8489,-4.8514,-4.8531,-4.856,-4.8557,-4.8569,-4.8587,-4.8606,-4.8626,-4.8604,-4.8637,-4.8638,-4.8628,-4.8663,-4.8663,-4.8692,-4.8654,-4.8655,-4.8656,0,-4.8305,-4.8335,-4.8383,-4.8417,-4.843,-4.8453,-4.8485,-4.851,-4.8539,-4.8549,-4.8571,-4.858,-4.8611,-4.8602,-4.8644,-4.8629,-4.8644,-4.8655,-4.8657,-4.8658,-4.8647,-4.8664,-4.8702,-4.8706,-4.8663,-4.8662,-4.8662,0,-4.8316,-4.8367,-4.8403,-4.8418,-4.8459,-4.8475,-4.8493,-4.8521,-4.854,-4.8568,-4.858,-4.861,-4.8627,-4.865,-4.8667,-4.8659,-4.8707,-4.87,-4.8716,-4.8715,-4.8723,-4.8722,-4.8762,-4.8736,-4.8736,-4.8736,-4.8736,0,-4.8347,-4.8376,-4.8408,-4.843,-4.8463,-4.8483,-4.8515,-4.8533,-4.8558,-4.8583,-4.8595,-4.8617,-4.8639,-4.8665,-4.8678,-4.8711,-4.8718,-4.8727,-4.873,-4.8725,-4.8723,-4.8733,-4.8731,-4.8737,-4.8737,-4.8737,-4.8737,0,-4.8363,-4.8386,-4.8426,-4.8462,-4.8472,-4.8494,-4.8525,-4.8546,-4.8563,-4.8594,-4.8603,-4.863,-4.866,-4.8681,-4.8719,-4.8728,-4.8763,-4.8767,-4.8754,-4.8755,-4.8769,-4.8767,-4.8815,-4.8822,-4.8793,-4.8793,-4.8794,0,-4.8381,-4.8403,-4.8443,-4.8461,-4.8479,-4.8508,-4.8528,-4.8549,-4.8569,-4.8604,-4.862,-4.8652,-4.8679,-4.8727,-4.8749,-4.8779,-4.8782,-4.8797,-4.8786,-4.878,-4.878,-4.8778,-4.878,-4.8798,-4.8798,-4.8798,-4.8798,0,-4.8409,-4.842,-4.8448,-4.8481,-4.8505,-4.8531,-4.8558,-4.8572,-4.8598,-4.8619,-4.8652,-4.8672,-4.8713,-4.8744,-4.8776,-4.8793,-4.8799,-4.8802,-4.8807,-4.8801,-4.8792,-4.8796,-4.8757,-4.88,-4.88,-4.88,-4.88,-4.8799,-4.8425,-4.8446,-4.8477,-4.8508,-4.8531,-4.8556,-4.8578,-4.8599,-4.8626,-4.8662,-4.8673,-4.8706,-4.8734,-4.8778,-4.8796,-4.8822,-4.882,-4.8827,-4.8829,-4.883,-4.8829,-4.879,-4.8828,-4.8828,-4.8828,-4.8828,-4.8828,0,-4.8453,-4.8474,-4.8503,-4.854,-4.8565,-4.8572,-4.8602,-4.8621,-4.8651,-4.8677,-4.8704,-4.8741,-4.8771,-4.8797,-4.8828,-4.8844,-4.8847,-4.8851,-4.8849,-4.8852,-4.883,-4.8822,-4.8847,-4.8847,-4.8847,-4.8847,-4.8847,-4.8847,-4.847,-4.8505,-4.852,-4.8566,-4.8587,-4.862,-4.8637,-4.8659,-4.8681,-4.8722,-4.8748,-4.8765,-4.8791,-4.8824,-4.8852,-4.8859,-4.8869,-4.8872,-4.8879,-4.8856,-4.8854,-4.8852,-4.8844,-4.8874,-4.8874,-4.8899,-4.8899,-4.8899]},{"header":{"parameterUnit":"m.s-1","parameterCategory":1,"la1":30.2991,"la2":30.254,"lo1":-89.0895,"lo2":-89.0444,"dy":0.0017,"dx":0.0017,"nx":28,"ny":28,"refTime":"2024-04-09T09:00:00:Z","depth":0,"parameterNumber":3,"parameterNumberName":"V-component_of_WINDS"},"data":[0,0,0,0,0,0,0,0,0,0,0,0,0,0,0,0,0,0,0,0,0,0,0,0,0,0,0,0,0,0,0,0,0,0,0,0,0,0,0,0,0,0,0,0,0,0,0,0,0,0,0,0,0,0,0,0,0,0,3.5786,3.5786,0,3.5796,3.5796,3.5796,3.5811,3.5811,3.5811,3.5812,3.5815,3.5815,3.5815,0,0,0,0,0,0,0,0,0,0,0,0,0,3.5774,3.5774,3.5786,3.5786,3.5786,3.5796,3.5796,3.5796,3.5811,3.5811,3.5811,3.5812,3.5815,3.5815,3.5815,0,0,0,0,0,0,0,0,0,0,0,0,0,3.5781,3.5775,3.5786,3.5795,3.5796,3.5796,3.5796,3.5796,3.5811,3.5811,3.5812,3.5812,3.5815,3.5815,3.5815,3.5805,0,0,3.5814,3.5814,0,0,0,0,0,0,0,0,3.5781,3.5782,3.5793,3.5794,3.5795,3.5803,3.5793,3.5799,3.5811,3.5805,3.5812,3.5812,3.581,3.581,3.5811,3.5805,3.5805,3.5814,3.5814,3.5813,3.5813,0,0,0,0,0,0,0,3.578,3.5781,3.579,3.5793,3.5795,3.5797,3.5798,3.5794,3.5805,3.5805,3.5806,3.5808,3.5811,3.5811,3.5811,3.5805,3.5814,3.5814,3.5813,3.5813,3.5795,3.5794,0,0,0,0,0,0,3.5779,3.5781,3.5789,3.579,3.5789,3.5797,3.5798,3.58,3.5805,3.5806,3.5807,3.5808,3.5811,3.5811,3.5811,3.5802,3.5813,3.5813,3.5813,3.5795,3.5795,3.5794,0,0,0,0,0,0,3.5779,3.578,3.5789,3.5786,3.5787,3.5796,3.5798,3.58,3.5801,3.5807,3.5808,3.5807,3.5812,3.5812,3.5808,3.5803,3.5813,3.5813,3.5795,3.5795,3.5794,3.5783,0,0,0,0,0,0,3.5779,3.578,3.5777,3.5786,3.5787,3.5786,3.5798,3.58,3.5801,3.5802,3.5806,3.5807,3.5812,3.5808,3.5807,3.5802,3.5813,3.5796,3.5795,3.5794,3.5784,3.5782,3.5781,0,0,0,0,0,3.5778,3.5771,3.5777,3.5778,3.5784,3.5786,3.5787,3.5795,3.58,3.5797,3.5802,3.5807,3.5803,3.5807,3.5807,3.5802,3.5796,3.5795,3.5795,3.5785,3.5783,3.5781,0,0,0,0,0,0,3.5758,3.5772,3.5779,3.5775,3.578,3.5788,3.5785,3.5792,3.5793,3.5794,3.5802,3.5802,3.5797,3.5799,3.5803,3.5794,3.5801,3.58,3.5793,3.5791,3.579,3.5789,3.5813,0,0,0,0,0,3.5754,3.5756,3.5767,3.5763,3.5765,3.5775,3.5775,3.5782,3.5786,3.5787,3.5791,3.5793,3.5793,3.5792,3.5792,3.5784,3.5786,3.5781,3.5779,3.5778,3.5777,3.5775,3.5773,3.5792,3.5792,3.5792,0,0,3.5744,3.5752,3.5752,3.5759,3.5764,3.5765,3.5776,3.5775,3.5776,3.5786,3.5784,3.5787,3.579,3.5785,3.5783,3.5786,3.5773,3.5777,3.5776,3.5776,3.5774,3.5772,3.5771,3.5791,3.5791,3.5791,0,0,3.5727,3.5733,3.5731,3.5736,3.5744,3.5751,3.5751,3.576,3.5763,3.5761,3.577,3.577,3.5768,3.5771,3.5772,3.576,3.5765,3.5759,3.5751,3.5749,3.5748,3.5746,3.5743,3.5742,3.5758,3.5758,3.5758,0,3.5713,3.5717,3.5728,3.5729,3.5732,3.5745,3.5743,3.5747,3.5753,3.5754,3.5759,3.576,3.5762,3.5759,3.5757,3.5757,3.5756,3.5758,3.5747,3.5746,3.5745,3.5742,3.5741,3.5758,3.5758,3.5758,3.5758,0,3.57,3.5702,3.5699,3.5709,3.5712,3.5711,3.5722,3.5723,3.573,3.5736,3.5735,3.5739,3.5741,3.5741,3.5745,3.5739,3.5741,3.5746,3.5753,3.5743,3.574,3.5739,3.5757,3.5757,3.5757,3.5757,0,0,3.5668,3.5688,3.5686,3.5692,3.5703,3.5704,3.5704,3.5709,3.5711,3.5715,3.5715,3.5716,3.5722,3.5723,3.5729,3.5727,3.5719,3.5733,3.5733,3.5731,3.5714,3.571,3.5708,3.5723,3.5723,3.5723,3.5714,0,3.5654,3.5657,3.5669,3.5668,3.5671,3.5685,3.5685,3.5691,3.5698,3.57,3.5706,3.5707,3.5714,3.5716,3.5715,3.572,3.5716,3.5721,3.5722,3.5722,3.5722,3.5707,3.5702,3.5693,3.5713,3.5712,3.5712,0,3.5636,3.5644,3.5644,3.5658,3.566,3.566,3.5667,3.5669,3.5677,3.5682,3.5685,3.5693,3.5693,3.57,3.5701,3.5704,3.5706,3.5709,3.5709,3.5709,3.5717,3.5707,3.5691,3.569,3.571,3.5711,3.5711,0,3.5615,3.5625,3.5627,3.5631,3.5647,3.5647,3.5653,3.5662,3.5665,3.567,3.5673,3.5677,3.5679,3.5682,3.5691,3.5695,3.5691,3.5698,3.5694,3.5694,3.5692,3.5692,3.5676,3.5693,3.5693,3.5693,3.5693,0,3.5598,3.5598,3.5618,3.5619,3.562,3.5634,3.5634,3.5641,3.5649,3.5651,3.5662,3.5664,3.5675,3.5678,3.5684,3.5684,3.5685,3.5688,3.569,3.5688,3.5687,3.5688,3.5689,3.5692,3.5692,3.5693,3.5693,0,3.5574,3.5588,3.5591,3.5607,3.5611,3.5611,3.5624,3.5626,3.5634,3.5637,3.5638,3.5651,3.5655,3.5664,3.5669,3.5674,3.5673,3.5676,3.5671,3.5672,3.5669,3.5669,3.5653,3.5652,3.5668,3.5668,3.5668,0,3.5562,3.5563,3.558,3.5584,3.5591,3.5596,3.5601,3.5615,3.5619,3.563,3.563,3.5636,3.5641,3.5647,3.5655,3.566,3.5663,3.5657,3.5664,3.5662,3.5664,3.5664,3.5665,3.5656,3.5655,3.5655,3.5655,0,3.554,3.5548,3.5555,3.5565,3.5571,3.5579,3.5588,3.559,3.5606,3.5609,3.5616,3.562,3.5628,3.5634,3.5641,3.5645,3.5653,3.5653,3.5653,3.565,3.5648,3.5651,3.5668,3.5653,3.5653,3.5654,3.5654,3.5654,3.5522,3.5525,3.5538,3.5547,3.5555,3.5564,3.5567,3.5578,3.5584,3.5593,3.5601,3.5606,3.5616,3.5626,3.5631,3.5635,3.5638,3.5637,3.5637,3.5637,3.5637,3.5648,3.5636,3.5636,3.5636,3.5636,3.5636,0,3.5502,3.5512,3.552,3.5533,3.554,3.555,3.556,3.5565,3.5571,3.558,3.5587,3.5594,3.5601,3.5611,3.5618,3.5619,3.5623,3.5621,3.5621,3.5622,3.5632,3.5633,3.5618,3.5618,3.5618,3.5618,3.5618,3.5618,3.5492,3.5497,3.5507,3.5517,3.5527,3.5535,3.554,3.5548,3.5556,3.5566,3.5572,3.558,3.559,3.5598,3.5604,3.5607,3.5609,3.5606,3.561,3.5619,3.5621,3.5622,3.5623,3.5606,3.5606,3.5599,3.5599,3.5599]}]]